Home > Time Zones > World Clock > Weather > Aktau > Past weeks

Flag for Kazakhstan Weather past 2 weeks in Aktau, Kazakhstan

Now
82 °F

Sunny.


Feels Like: 82 °F
Forecast: 73 / 87 °F
Wind: 17 mph from Northeast

Location: Aktau

Current Time: Aug 30, 2014 at 11:22:35 AM

Latest Report: Aug 30, 2014 at 10:30 AM


Visibility: 10 mi

Pressure: 29.95 "Hg

Humidity: 45%

Dew point: 59 °F

Location of AktauLocation

Historic Weather in Aktau — Graph

°F

Aktau temperature yesterday

Maximum temperature yesterday: 99 °F (at 11:30 AM)
Minimum temperature yesterday: 72 °F (at 6:00 AM)
Average temperature yesterday: 84 °F

Past Weeks' High & Low Weather Summary

 TemperatureHumidityPressure
High102 °F (Aug 19, 12:30 PM)94% (Aug 21, 7:30 AM)30.04 "Hg (Aug 21, 7:30 AM)
Low64 °F (Aug 16, 6:00 AM)8% (Aug 18, 1:00 PM)29.74 "Hg (Aug 18, 3:30 PM)
Average83 °F36%29.86 "Hg
* Reported Aug 15 10:00 AM — Aug 30 10:00 AM, Aktau, Weather by CustomWeather, © 2014

Note: Actual official high and low records may vary slightly from our data, if they occured in-between our weather recording intervals... More about our weather records

Advertising

Aktau weather history for previous 24 hours

 ConditionsComfort  
Time TempWeatherWind HumidityBarometerVisibility
10:00 AM
Aug 30
82 °FSunny.20 mph45%29.92 "Hg10 mi
9:30 AM81 °FSunny.20 mph48%29.92 "Hg10 mi
9:00 AM81 °FSunny.20 mph48%29.92 "Hg10 mi
8:30 AM79 °FClear.20 mph51%29.89 "Hg10 mi
8:00 AM77 °FClear.15 mph54%29.89 "Hg10 mi
7:30 AM75 °FClear.15 mph57%29.89 "Hg10 mi
7:00 AM75 °FClear.15 mph61%29.89 "Hg10 mi
6:30 AM75 °FPassing clouds.15 mph61%29.86 "HgN/A
6:00 AM75 °FClear.15 mph61%29.86 "Hg10 mi
5:30 AM77 °FClear.17 mph61%29.86 "Hg10 mi
5:00 AM77 °FClear.17 mph65%29.86 "Hg10 mi
4:30 AM79 °FClear.17 mph70%29.86 "Hg10 mi
4:00 AM79 °FClear.15 mph79%29.86 "Hg10 mi
3:30 AM79 °FClear.13 mph79%29.86 "Hg10 mi
3:00 AM77 °FClear.15 mph83%29.83 "Hg10 mi
2:30 AM77 °FClear.15 mph83%29.83 "Hg10 mi
2:00 AM77 °FClear.10 mph83%29.83 "Hg10 mi
12:00 AM75 °FPassing clouds.6 mph89%29.86 "HgN/A
11:30 PM
Aug 29
75 °FPassing clouds.6 mph89%29.86 "HgN/A
11:00 PM73 °FClear.6 mph83%29.83 "Hg4 mi
10:30 PM75 °FClear.6 mph89%29.83 "Hg10 mi
10:00 PM77 °FSunny.3 mph83%29.83 "Hg10 mi
9:30 PM79 °FPassing clouds.6 mph84%29.83 "HgN/A
9:00 PM81 °FSunny.6 mph79%29.83 "Hg10 mi
8:30 PM81 °FSunny.8 mph79%29.83 "Hg10 mi
8:00 PM82 °FSunny.8 mph74%29.80 "Hg10 mi
7:30 PM84 °FSunny.8 mph66%29.80 "Hg10 mi
7:00 PM86 °FSunny.8 mph59%29.80 "Hg10 mi
6:30 PM91 °FSunny.8 mph36%29.80 "Hg10 mi
6:00 PM90 °FSunny.6 mph41%29.80 "Hg10 mi
5:30 PM90 °FSunny.10 mph49%29.80 "Hg10 mi
5:00 PM91 °FSunny.10 mph41%29.80 "Hg10 mi
4:30 PM91 °FSunny.13 mph36%29.80 "Hg10 mi
4:00 PM93 °FPassing clouds.13 mph34%29.80 "HgN/A
3:30 PM93 °FSunny.15 mph32%29.83 "Hg10 mi
3:00 PM91 °FSunny.17 mph41%29.83 "Hg10 mi
2:30 PM93 °FSunny.17 mph36%29.83 "Hg10 mi
2:00 PM95 °FSunny.20 mph28%29.83 "Hg10 mi
1:30 PM97 °FSunny.22 mph23%29.80 "Hg10 mi
1:00 PM95 °FSunny.22 mph23%29.83 "Hg10 mi
12:30 PM97 °FSunny.22 mph16%29.83 "Hg10 mi
12:00 PM99 °FSunny.24 mph13%29.83 "Hg10 mi
11:30 AM99 °FSunny.20 mph13%29.83 "Hg10 mi
11:00 AM97 °FSunny.22 mph14%29.83 "Hg10 mi
Weather by CustomWeather, © 2014

See weather overviewHow to use our weather pages